星链-32181 (STARLINK-32181)

导读

STARLINK-32181是美国SpaceX公司星链星座的卫星,于2024年8月2日发射。星链项目旨在低轨部署海量卫星,提供全球高速互联网接入,尤其填补偏远地区覆盖空白。作为Starlink组网卫星之一,它运行在近地轨道,配备专用天线与太阳能供电模块,通过星间链路和地面站协同工作,支撑星座的全球通信服务能力,推进SpaceX万颗低轨卫星互联网建设进程。

Basic Information
目录编号:
60349
目录名称:
STARLINK-32181
国际标识:
2024-136W
轨道中心:
EARTH
卫星名称:
星链-32181 (STARLINK-32181)
卫星全名:
星链-32181 (STARLINK-32181)
卫星状态:
在轨 (已飞行763 天)
发射日期:
2024-08-02 UTC
国别 :
美国 (US)
星等 :
--
Orbit Information
数据来源 国际轨道数据
星历时间: 2026-09-03T22:29:59+0800
1天前
查看轨道信息
半长轴: 6840.865km
偏心率: 0.0001323
轨道倾角: 53.159°
近地点辐角 74.093°
升交点赤经 325.046°
平近点角 286.022°
近地点: 461.822km
远地点: 463.634km
周期: 93.848分钟
每日圈数: 15.343919
Detailed Information
卫星平台:
Starlink v2.0 mini
运营商:
太空探索技术公司
运营商所在国:
美国
制造商(研发单位):
太空探索技术公司
制造商所在国:
美国
使用方式:
暂无
Satellite Introduction
星链(Starlink)计划是由太空探索技术公司(SpaceX)提出的一个巨型低轨卫星互联网星座项目,计划在2019年至2024年间在太空搭建由约1.2万颗卫星组成的“星链”网络,其中1584颗将部署在地球上空550千米处的近地轨道,并从2020年开始工作。该卫星仍在工作。
2D Orbit Map
3D Orbit Map
Orbit Altitude Analysis Chart
Orbit Inclination Analysis Chart
Orbit Comprehensive Analysis Chart
View Comprehensive Chart
Conjunction Data List
Event ID Objects TCA Miss Dist (km) Collision Risk Probability Collision Risk Index (CRI) Action
CDM_260905-134305-976906-034921
2026-09-05T
13:43:40+0000
0.741 km
远距离
3.28325E-5 中风险 0.65
CDM_260905-081505-976906-034921
2026-09-05T
08:15:22+0000
1.667 km
极远距离
2.257514E-6 低风险 0.42
CDM_260903-060305-378906-034921
2026-09-03T
06:03:29+0000
2.480 km
极远距离
1.507705E-6 低风险 0.39
CDM_260905-044604-941406-034921
2026-09-05T
04:46:58+0000
2.630 km
极远距离
1.438644E-6 低风险 0.38
CDM_260905-094905-976906-034921
2026-09-05T
09:49:10+0000
2.379 km
极远距离
9.768814E-7 极低风险 0.35
CDM_260903-013205-976906-034922
2026-09-03T
01:32:30+0000
2.442 km
极远距离
9.335375E-7 极低风险 0.34
CDM_260905-151705-976906-034921
2026-09-05T
15:17:28+0000
2.787 km
极远距离
7.677438E-7 极低风险 0.33
CDM_260903-021905-976906-034921
2026-09-03T
02:19:24+0000
2.890 km
极远距离
7.343879E-7 极低风险 0.32